[[{"header":{"parameterUnit":"m.s-1","parameterCategory":1,"la1":30.2991,"la2":30.254,"lo1":-89.0895,"lo2":-89.0444,"dy":0.0017,"dx":0.0017,"nx":28,"ny":28,"refTime":"2024-04-22T21:00:00:Z","depth":0,"parameterNumber":2,"parameterNumberName":"U-component_of_WINDS"},"data":[0,0,0,0,0,0,0,0,0,0,0,0,0,0,0,0,0,0,0,0,0,0,0,0,0,0,0,0,0,0,0,0,0,0,0,0,0,0,0,0,0,0,0,0,0,0,0,0,0,0,0,0,0,0,0,0,0,0,-4.0298,-4.0299,0,-4.0338,-4.0338,-4.0339,-4.022,-4.0216,-4.0213,-4.0209,-4.025,-4.0255,-4.0259,0,0,0,0,0,0,0,0,0,0,0,0,0,-4.0119,-4.0123,-4.0298,-4.0299,-4.0299,-4.0338,-4.0338,-4.0339,-4.0221,-4.0216,-4.0212,-4.0208,-4.0249,-4.0254,-4.026,0,0,0,0,0,0,0,0,0,0,0,0,0,-4.0182,-4.0124,-4.0298,-4.0245,-4.024,-4.0338,-4.0338,-4.0339,-4.0222,-4.0216,-4.0211,-4.0206,-4.0247,-4.0254,-4.026,-4.0411,0,0,-4.0281,-4.0284,0,0,0,0,0,0,0,0,-4.0178,-4.0188,-4.0252,-4.0249,-4.0244,-4.0268,-4.029,-4.0363,-4.0223,-4.0229,-4.0209,-4.0203,-4.0261,-4.0266,-4.0286,-4.0413,-4.0415,-4.0281,-4.0286,-4.0288,-4.029,0,0,0,0,0,0,0,-4.0174,-4.0186,-4.0314,-4.0253,-4.0248,-4.0219,-4.0221,-4.0303,-4.0275,-4.0228,-4.0219,-4.0226,-4.0258,-4.0279,-4.0286,-4.0415,-4.0281,-4.0287,-4.0291,-4.0294,-4.0666,-4.0672,0,0,0,0,0,0,-4.0177,-4.0183,-4.0312,-4.0315,-4.0197,-4.0226,-4.0229,-4.0266,-4.0274,-4.027,-4.023,-4.022,-4.0271,-4.0278,-4.0287,-4.0461,-4.0288,-4.0295,-4.0299,-4.066,-4.0667,-4.0674,0,0,0,0,0,0,-4.0173,-4.0189,-4.0311,-4.0247,-4.026,-4.0235,-4.0277,-4.027,-4.0291,-4.0276,-4.027,-4.0258,-4.0267,-4.0277,-4.038,-4.0461,-4.0298,-4.0304,-4.0653,-4.0662,-4.067,-4.0813,0,0,0,0,0,0,-4.0169,-4.0189,-4.0246,-4.0249,-4.0264,-4.0405,-4.0282,-4.0274,-4.0303,-4.029,-4.03,-4.0296,-4.0263,-4.0371,-4.0387,-4.0467,-4.0309,-4.0646,-4.0657,-4.0668,-4.0801,-4.0826,-4.0847,0,0,0,0,0,-4.0163,-4.0285,-4.0249,-4.0266,-4.0335,-4.0409,-4.0418,-4.0377,-4.031,-4.0367,-4.0357,-4.0296,-4.045,-4.0383,-4.04,-4.0483,-4.0641,-4.0654,-4.0667,-4.0791,-4.0821,-4.0846,0,0,0,0,0,0,-4.0292,-4.0285,-4.0245,-4.0372,-4.0392,-4.0389,-4.046,-4.0411,-4.045,-4.0436,-4.0385,-4.0388,-4.05,-4.0502,-4.0427,-4.0628,-4.0534,-4.0551,-4.0622,-4.0651,-4.0673,-4.0669,-4.0315,0,0,0,0,0,-4.0336,-4.0398,-4.0387,-4.05,-4.0513,-4.0485,-4.0516,-4.0483,-4.0502,-4.051,-4.0507,-4.0528,-4.058,-4.0616,-4.0664,-4.0802,-4.0801,-4.0868,-4.0891,-4.0909,-4.0924,-4.0995,-4.1023,-4.0717,-4.0717,-4.0716,0,0,-4.0426,-4.043,-4.0472,-4.0527,-4.0538,-4.0602,-4.0493,-4.0566,-4.0612,-4.0521,-4.0617,-4.0616,-4.0636,-4.0756,-4.0809,-4.0762,-4.1009,-4.0926,-4.0941,-4.0946,-4.1011,-4.104,-4.1066,-4.0726,-4.0724,-4.0723,0,0,-4.0623,-4.0633,-4.0726,-4.0741,-4.076,-4.074,-4.0763,-4.0768,-4.0763,-4.086,-4.0791,-4.0847,-4.0939,-4.0955,-4.0975,-4.1178,-4.1123,-4.1196,-4.1314,-4.1383,-4.1408,-4.1429,-4.1498,-4.1524,-4.1211,-4.1211,-4.1211,0,-4.0732,-4.0826,-4.0781,-4.0858,-4.0883,-4.0804,-4.0898,-4.0914,-4.0948,-4.0967,-4.0914,-4.1027,-4.1035,-4.1157,-4.1206,-4.1227,-4.1249,-4.1193,-4.1408,-4.1429,-4.1447,-4.1513,-4.154,-4.122,-4.1219,-4.1218,-4.1217,0,-4.0958,-4.1025,-4.1098,-4.1132,-4.1166,-4.1252,-4.122,-4.126,-4.1224,-4.1211,-4.1309,-4.1315,-4.1362,-4.1389,-4.1356,-4.1507,-4.1476,-4.1417,-4.132,-4.1486,-4.1547,-4.1572,-4.1232,-4.1229,-4.1226,-4.1224,0,0,-4.1236,-4.1244,-4.1271,-4.1285,-4.13,-4.135,-4.1432,-4.1478,-4.1512,-4.1539,-4.1605,-4.1685,-4.1629,-4.1653,-4.162,-4.1682,-4.1839,-4.1614,-4.1613,-4.1653,-4.2002,-4.2045,-4.2075,-4.1803,-4.1808,-4.1812,-4.2,0,-4.1427,-4.1566,-4.1528,-4.1666,-4.1726,-4.1651,-4.1722,-4.1739,-4.1729,-4.1778,-4.1766,-4.1823,-4.1747,-4.176,-4.1818,-4.1807,-4.1908,-4.1794,-4.1862,-4.1865,-4.1856,-4.2107,-4.2153,-4.2329,-4.2023,-4.2028,-4.203,0,-4.1667,-4.1702,-4.1847,-4.1851,-4.1874,-4.1939,-4.1976,-4.2025,-4.2042,-4.203,-4.2057,-4.2012,-4.2091,-4.1997,-4.2105,-4.2028,-4.2054,-4.2054,-4.2059,-4.2062,-4.1956,-4.2113,-4.2385,-4.2411,-4.2068,-4.2065,-4.2062,0,-4.1851,-4.1935,-4.2032,-4.2046,-4.2054,-4.2101,-4.2106,-4.2118,-4.2148,-4.2182,-4.22,-4.2243,-4.2266,-4.23,-4.2267,-4.2202,-4.238,-4.2283,-4.237,-4.2371,-4.2409,-4.2406,-4.2686,-4.2432,-4.2431,-4.2431,-4.243,0,-4.2067,-4.2157,-4.2114,-4.2173,-4.2272,-4.2228,-4.2327,-4.2324,-4.2336,-4.2393,-4.2332,-4.2387,-4.2342,-4.2393,-4.2368,-4.246,-4.2472,-4.2463,-4.2455,-4.2467,-4.2467,-4.2481,-4.2466,-4.2438,-4.2436,-4.2435,-4.2433,0,-4.2288,-4.2263,-4.2362,-4.2362,-4.2364,-4.2437,-4.2436,-4.249,-4.2476,-4.2548,-4.2563,-4.254,-4.2597,-4.2568,-4.2628,-4.2611,-4.2728,-4.2705,-4.2722,-4.2715,-4.2803,-4.2794,-4.3098,-4.3134,-4.286,-4.2863,-4.2865,0,-4.2425,-4.2492,-4.2499,-4.2533,-4.2542,-4.2597,-4.2626,-4.2587,-4.2619,-4.2644,-4.2695,-4.2746,-4.2784,-4.2878,-4.2867,-4.2911,-4.2887,-4.299,-4.2893,-4.2902,-4.2884,-4.2879,-4.2885,-4.3009,-4.3012,-4.3015,-4.3017,0,-4.267,-4.2654,-4.2699,-4.274,-4.2776,-4.2807,-4.2831,-4.2863,-4.2823,-4.2863,-4.292,-4.2949,-4.3009,-4.306,-4.3098,-4.3103,-4.3053,-4.3048,-4.307,-4.3081,-4.3087,-4.3082,-4.2772,-4.3041,-4.3038,-4.3036,-4.3035,-4.3034,-4.2851,-4.2907,-4.292,-4.2971,-4.2986,-4.301,-4.3061,-4.3053,-4.3099,-4.3144,-4.3118,-4.3184,-4.3199,-4.3245,-4.3257,-4.3307,-4.3266,-4.3299,-4.3306,-4.3314,-4.3324,-4.3082,-4.3315,-4.3314,-4.3313,-4.3313,-4.3312,0,-4.309,-4.3095,-4.3143,-4.3179,-4.322,-4.317,-4.3195,-4.3232,-4.329,-4.3309,-4.3347,-4.3412,-4.3461,-4.3454,-4.3498,-4.354,-4.3518,-4.3553,-4.3547,-4.3549,-4.336,-4.3335,-4.3569,-4.3569,-4.3569,-4.3569,-4.3569,-4.3569,-4.3219,-4.331,-4.3296,-4.3393,-4.3397,-4.3461,-4.3479,-4.3501,-4.3515,-4.3589,-4.363,-4.3625,-4.3633,-4.3677,-4.372,-4.3716,-4.3734,-4.3777,-4.3765,-4.3588,-4.3562,-4.3538,-4.3514,-4.3782,-4.3782,-4.3948,-4.395,-4.3951]},{"header":{"parameterUnit":"m.s-1","parameterCategory":1,"la1":30.2991,"la2":30.254,"lo1":-89.0895,"lo2":-89.0444,"dy":0.0017,"dx":0.0017,"nx":28,"ny":28,"refTime":"2024-04-22T21:00:00:Z","depth":0,"parameterNumber":3,"parameterNumberName":"V-component_of_WINDS"},"data":[0,0,0,0,0,0,0,0,0,0,0,0,0,0,0,0,0,0,0,0,0,0,0,0,0,0,0,0,0,0,0,0,0,0,0,0,0,0,0,0,0,0,0,0,0,0,0,0,0,0,0,0,0,0,0,0,0,0,-0.307,-0.307,0,-0.3101,-0.3101,-0.3101,-0.3189,-0.319,-0.3192,-0.3194,-0.3222,-0.3221,-0.322,0,0,0,0,0,0,0,0,0,0,0,0,0,-0.3082,-0.3082,-0.307,-0.307,-0.307,-0.31,-0.3101,-0.3101,-0.3188,-0.3191,-0.3193,-0.3195,-0.3223,-0.3221,-0.322,0,0,0,0,0,0,0,0,0,0,0,0,0,-0.3091,-0.3082,-0.307,-0.3118,-0.3122,-0.31,-0.3101,-0.3101,-0.3188,-0.3191,-0.3193,-0.3196,-0.3223,-0.3222,-0.322,-0.3153,0,0,-0.3215,-0.3215,0,0,0,0,0,0,0,0,-0.3091,-0.3091,-0.311,-0.3114,-0.3119,-0.3144,-0.3116,-0.3119,-0.3187,-0.3163,-0.3194,-0.3198,-0.3194,-0.3195,-0.3194,-0.3155,-0.3156,-0.3215,-0.3214,-0.3214,-0.3213,0,0,0,0,0,0,0,-0.309,-0.309,-0.3082,-0.311,-0.3116,-0.3136,-0.3141,-0.3117,-0.3162,-0.3165,-0.3172,-0.3174,-0.3197,-0.3195,-0.3195,-0.3156,-0.3215,-0.3214,-0.3213,-0.3212,-0.3062,-0.3059,0,0,0,0,0,0,-0.3083,-0.3089,-0.3081,-0.3083,-0.3112,-0.3134,-0.3139,-0.3133,-0.3162,-0.3169,-0.3172,-0.3178,-0.3197,-0.3197,-0.3197,-0.3119,-0.3214,-0.3212,-0.3211,-0.3065,-0.3061,-0.3058,0,0,0,0,0,0,-0.3083,-0.3081,-0.308,-0.3088,-0.3089,-0.3131,-0.3123,-0.3132,-0.3131,-0.3167,-0.3175,-0.3162,-0.3199,-0.3199,-0.3163,-0.3122,-0.3211,-0.321,-0.3068,-0.3064,-0.3059,-0.2964,0,0,0,0,0,0,-0.3083,-0.3081,-0.3057,-0.3086,-0.3088,-0.3047,-0.3121,-0.3131,-0.3128,-0.3137,-0.3161,-0.3167,-0.3201,-0.3165,-0.3162,-0.3121,-0.3209,-0.3072,-0.3066,-0.3061,-0.2971,-0.2957,-0.2945,0,0,0,0,0,-0.3083,-0.3029,-0.3055,-0.3054,-0.3059,-0.3044,-0.3045,-0.3086,-0.3125,-0.31,-0.3123,-0.3166,-0.3127,-0.3161,-0.3158,-0.3116,-0.3075,-0.3068,-0.3061,-0.2977,-0.296,-0.2945,0,0,0,0,0,0,-0.2992,-0.3033,-0.3063,-0.3017,-0.3026,-0.3059,-0.3029,-0.3067,-0.3064,-0.3072,-0.3123,-0.3127,-0.3084,-0.3097,-0.3134,-0.3052,-0.3108,-0.31,-0.3045,-0.3029,-0.3016,-0.3013,-0.3208,0,0,0,0,0,-0.2967,-0.2952,-0.2989,-0.2944,-0.2948,-0.2987,-0.2982,-0.3013,-0.3024,-0.3029,-0.3049,-0.3057,-0.3047,-0.3039,-0.3031,-0.2974,-0.2979,-0.2944,-0.293,-0.2919,-0.2911,-0.288,-0.2864,-0.3035,-0.3035,-0.3035,0,0,-0.2914,-0.2935,-0.2923,-0.2926,-0.2938,-0.292,-0.299,-0.2969,-0.2956,-0.3025,-0.2993,-0.3008,-0.302,-0.2973,-0.2953,-0.2982,-0.2866,-0.291,-0.2901,-0.29,-0.2872,-0.2855,-0.2841,-0.303,-0.3031,-0.3032,0,0,-0.2809,-0.2824,-0.2788,-0.2798,-0.2813,-0.284,-0.2831,-0.2858,-0.2871,-0.2839,-0.2891,-0.2875,-0.2856,-0.2863,-0.2863,-0.2759,-0.2798,-0.2755,-0.2685,-0.2655,-0.2641,-0.263,-0.2591,-0.2577,-0.2748,-0.2747,-0.2747,0,-0.2742,-0.2718,-0.2765,-0.274,-0.2739,-0.2802,-0.2765,-0.2772,-0.2783,-0.2781,-0.2813,-0.279,-0.2803,-0.2758,-0.2732,-0.2731,-0.2721,-0.2753,-0.264,-0.2628,-0.2618,-0.2582,-0.2567,-0.2742,-0.2743,-0.2743,-0.2744,0,-0.2633,-0.2616,-0.2585,-0.2596,-0.2592,-0.2561,-0.2601,-0.2591,-0.2622,-0.2645,-0.2611,-0.2628,-0.2625,-0.2616,-0.2646,-0.2574,-0.2592,-0.2631,-0.2688,-0.2596,-0.2562,-0.2549,-0.2734,-0.2736,-0.2738,-0.2739,0,0,-0.2472,-0.2508,-0.2496,-0.2501,-0.2523,-0.251,-0.2481,-0.2478,-0.2468,-0.2474,-0.245,-0.2432,-0.2468,-0.2469,-0.25,-0.2473,-0.2387,-0.2516,-0.2517,-0.249,-0.2307,-0.2276,-0.226,-0.2413,-0.2411,-0.2409,-0.2306,0,-0.2372,-0.2326,-0.2366,-0.2312,-0.2295,-0.2354,-0.2329,-0.2338,-0.2358,-0.2347,-0.2369,-0.2355,-0.2404,-0.2405,-0.2381,-0.2403,-0.2351,-0.2411,-0.239,-0.2388,-0.2384,-0.2243,-0.2211,-0.2112,-0.2293,-0.2291,-0.2289,0,-0.2249,-0.225,-0.2194,-0.2218,-0.2212,-0.2189,-0.2189,-0.2178,-0.2189,-0.2205,-0.2205,-0.2243,-0.2215,-0.2271,-0.2232,-0.2272,-0.2266,-0.2275,-0.2272,-0.2271,-0.2333,-0.2236,-0.2082,-0.2067,-0.227,-0.2271,-0.2273,0,-0.2135,-0.2122,-0.2087,-0.2089,-0.2117,-0.2099,-0.2109,-0.2124,-0.2119,-0.2118,-0.2116,-0.2111,-0.2109,-0.2104,-0.2139,-0.2177,-0.2094,-0.2154,-0.2106,-0.2104,-0.2085,-0.2085,-0.1926,-0.2082,-0.2083,-0.2083,-0.2083,0,-0.2018,-0.1981,-0.2036,-0.2014,-0.1974,-0.202,-0.1978,-0.1994,-0.2006,-0.1988,-0.2038,-0.2019,-0.2067,-0.2052,-0.2079,-0.2042,-0.204,-0.2052,-0.2059,-0.2047,-0.2045,-0.2042,-0.205,-0.2079,-0.208,-0.2081,-0.2081,0,-0.1884,-0.192,-0.1885,-0.1913,-0.192,-0.1889,-0.1913,-0.1893,-0.1916,-0.1891,-0.1888,-0.1924,-0.1909,-0.1944,-0.1934,-0.1952,-0.1898,-0.1917,-0.1894,-0.19,-0.1849,-0.1853,-0.1682,-0.1661,-0.1831,-0.1829,-0.1828,0,-0.1807,-0.178,-0.1806,-0.1798,-0.1805,-0.1791,-0.1786,-0.183,-0.1823,-0.1833,-0.1811,-0.1801,-0.1795,-0.1768,-0.1793,-0.1785,-0.1803,-0.1744,-0.1802,-0.179,-0.1801,-0.1801,-0.1798,-0.1731,-0.1729,-0.1728,-0.1726,0,-0.1666,-0.1684,-0.1677,-0.1674,-0.1668,-0.1668,-0.1671,-0.1661,-0.1707,-0.1696,-0.1683,-0.1678,-0.1668,-0.1656,-0.1654,-0.1663,-0.1701,-0.1708,-0.1696,-0.1682,-0.167,-0.1674,-0.186,-0.1711,-0.1713,-0.1714,-0.1715,-0.1715,-0.1557,-0.1536,-0.155,-0.1539,-0.1547,-0.1548,-0.1531,-0.1552,-0.1541,-0.1537,-0.1563,-0.1543,-0.1553,-0.1554,-0.1559,-0.1543,-0.157,-0.1553,-0.1549,-0.1543,-0.1534,-0.1673,-0.1543,-0.1543,-0.1544,-0.1544,-0.1545,0,-0.1418,-0.143,-0.1419,-0.1423,-0.1414,-0.1452,-0.1457,-0.1447,-0.1429,-0.1436,-0.1429,-0.1412,-0.14,-0.1424,-0.1416,-0.1398,-0.1415,-0.1394,-0.1395,-0.1396,-0.1512,-0.1522,-0.138,-0.138,-0.138,-0.138,-0.138,-0.138,-0.1344,-0.1309,-0.1328,-0.1297,-0.1309,-0.129,-0.129,-0.1291,-0.1297,-0.1276,-0.1267,-0.1283,-0.1296,-0.1289,-0.1279,-0.1286,-0.128,-0.1253,-0.1265,-0.1372,-0.1389,-0.1404,-0.1414,-0.1251,-0.1251,-0.1152,-0.1151,-0.115]}]]